Russellville, AR

9:58 PM CDT on October 20, 2019 (GMT -0500)
Russellville Regional

Weather History for KRUE - August, 2019

Change the Weather History Date:

Tuesday, August 6, 2019

  Actual Average (KHOT) Record (KHOT)
Temperature  
Mean Temperature 84 °F -  
Max Temperature 96 °F 92 °F 106 °F (1956)
Min Temperature 72 °F 69 °F 57 °F (1948)
Cooling Degree Days 18    
Growing Degree Days 34 (Base 50)    
Moisture  
Dew Point 71 °F    
Average Humidity 71    
Maximum Humidity 93    
Minimum Humidity 41    
Precipitation  
Precipitation 0.00 in - - ()
Sea Level Pressure  
Sea Level Pressure 29.89 in    
Wind  
Wind Speed 2 mph (WNW)    
Max Wind Speed 10 mph    
Max Gust Speed -    
Visibility 9 miles    
Events      
Averages and records for this station are not official NWS values.
T = Trace of Precipitation, MM = Missing Value Source: NWS Daily Summary

Daily Weather History Graph

Daily Weather History Graph

Search for Another Location

Airport or City:

Astronomy

Aug. 06, 2019 Rise Set
Actual Time 6:24 AM CDT 8:11 PM CDT
Civil Twilight 5:57 AM CDT 8:38 PM CDT
Nautical Twilight 5:24 AM CDT 9:11 PM CDT
Astronomical Twilight 4:48 AM CDT 9:47 PM CDT
Moon 12:36 PM CDT (8/6) No Moon Set
Length of Visible Light 14h 41m
Length of Day
13h 46m
Waxing Crescent, 39% of the Moon is Illuminated
Aug 6
Waxing Crescent
Aug 7
First Quarter
Aug 15
Full
Aug 23
Last Quarter
Aug 30
New

Hourly Weather History & Observations

Time (CDT) Temp. Heat Index Dew Point Humidity Pressure Visibility Wind Dir Wind Speed Gust Speed Precip Events Conditions
12:53 AM 73.9 °F - 71.1 °F 91% 29.91 in 10.0 mi Calm Calm - N/A   Clear
1:53 AM 73.9 °F - 71.1 °F 91% 29.91 in 10.0 mi Calm Calm - N/A   Mostly Cloudy
2:53 AM 73.0 °F - 71.1 °F 93% 29.91 in 9.0 mi Calm Calm - N/A   Clear
3:53 AM 73.0 °F - 70.0 °F 90% 29.91 in 8.0 mi Calm Calm - N/A   Partly Cloudy
4:53 AM 73.0 °F - 70.0 °F 90% 29.92 in 7.0 mi Calm Calm - N/A   Clear
5:53 AM 72.0 °F - 70.0 °F 93% 29.92 in 6.0 mi Calm Calm - N/A   Clear
6:53 AM 72.0 °F - 70.0 °F 93% 29.93 in 4.0 mi Calm Calm - N/A   Clear
7:53 AM 75.9 °F - 72.0 °F 87% 29.94 in 8.0 mi Calm Calm - N/A   Clear
8:53 AM 80.1 °F 84.2 °F 73.0 °F 79% 29.94 in 9.0 mi Calm Calm - N/A   Clear
10:53 AM 88.0 °F 96.5 °F 73.9 °F 63% 29.93 in 10.0 mi Calm Calm - N/A   Clear
11:53 AM 90.0 °F 96.9 °F 72.0 °F 55% 29.92 in 10.0 mi NW 8.1 mph - N/A   Clear
12:53 PM 91.0 °F 98.2 °F 72.0 °F 53% 29.90 in 10.0 mi WSW 9.2 mph - N/A   Partly Cloudy
1:53 PM 93.0 °F 100.1 °F 71.1 °F 49% 29.88 in 10.0 mi Variable 6.9 mph - N/A   Partly Cloudy
2:53 PM 95.0 °F 102.5 °F 71.1 °F 46% 29.87 in 10.0 mi WSW 5.8 mph - N/A   Clear
3:53 PM 95.0 °F 103.2 °F 72.0 °F 47% 29.85 in 10.0 mi NNW 10.4 mph - N/A   Clear
4:53 PM 95.0 °F 99.5 °F 68.0 °F 41% 29.85 in 10.0 mi NNW 8.1 mph - N/A   Clear
5:53 PM 93.9 °F 97.5 °F 66.9 °F 41% 29.83 in 10.0 mi West 6.9 mph - N/A   Clear
6:53 PM 93.0 °F 96.4 °F 66.9 °F 42% 29.83 in 10.0 mi West 4.6 mph - N/A   Clear
7:53 PM 84.0 °F 89.6 °F 72.0 °F 67% 29.82 in 10.0 mi Calm Calm - N/A   Clear
8:53 PM 81.0 °F 85.8 °F 73.0 °F 77% 29.83 in 10.0 mi Calm Calm - N/A   Clear
9:53 PM 79.0 °F - 73.0 °F 82% 29.85 in 10.0 mi SSW 3.5 mph - N/A   Clear
10:53 PM 79.0 °F - 73.0 °F 82% 29.85 in 10.0 mi Calm Calm - N/A   Clear
11:53 PM 78.1 °F - 73.0 °F 84% 29.87 in 10.0 mi NE 3.5 mph - N/A   Clear